TimeEEST,TemperatureF,Dew PointF,Humidity,Sea Level PressureIn,VisibilityMPH,Wind Direction,Wind SpeedMPH,Gust SpeedMPH,PrecipitationIn,Events,Conditions,WindDirDegrees,DateUTC
12:20 AM,55.4,37.4,51,30.04,-9999.0,Variable,2.3,-,N/A,,Clear,0,2013-06-23 21:20:00
12:50 AM,50.0,39.2,66,30.04,-9999.0,Variable,1.2,-,N/A,,Clear,0,2013-06-23 21:50:00
1:20 AM,50.0,39.2,66,30.04,-9999.0,Variable,2.3,-,N/A,,Clear,0,2013-06-23 22:20:00
1:50 AM,50.0,39.2,66,30.04,-9999.0,WSW,3.5,-,N/A,,Clear,250,2013-06-23 22:50:00
2:20 AM,48.2,39.2,71,30.04,-9999.0,WSW,3.5,-,N/A,,Clear,250,2013-06-23 23:20:00
2:50 AM,46.4,39.2,76,30.04,-9999.0,SSW,2.3,-,N/A,,Clear,210,2013-06-23 23:50:00
3:00 AM,46,39,70,,12,SSW,2.3,,,,,210,2013-06-24 00:00:00
3:20 AM,44.6,39.2,81,30.04,-9999.0,Calm,Calm,-,N/A,,Clear,0,2013-06-24 00:20:00
3:50 AM,46.4,39.2,76,30.04,-9999.0,Variable,2.3,-,N/A,,Clear,0,2013-06-24 00:50:00
4:20 AM,44.6,39.2,81,30.04,-9999.0,South,3.5,-,N/A,,Clear,190,2013-06-24 01:20:00
4:50 AM,42.8,37.4,81,30.04,-9999.0,Variable,1.2,-,N/A,,Clear,0,2013-06-24 01:50:00
5:20 AM,44.6,39.2,81,30.04,-9999.0,Calm,Calm,-,N/A,,Clear,0,2013-06-24 02:20:00
5:50 AM,46.4,41.0,81,30.04,-9999.0,Variable,1.2,-,N/A,,Clear,0,2013-06-24 02:50:00
6:20 AM,51.8,41.0,67,30.04,-9999.0,Calm,Calm,-,N/A,,Clear,0,2013-06-24 03:20:00
6:50 AM,55.4,42.8,63,30.04,-9999.0,Calm,Calm,-,N/A,,Clear,0,2013-06-24 03:50:00
7:20 AM,60.8,42.8,52,30.04,-9999.0,Calm,Calm,-,N/A,,Clear,0,2013-06-24 04:20:00
7:50 AM,60.8,44.6,55,30.04,-9999.0,Variable,2.3,-,N/A,,Clear,0,2013-06-24 04:50:00
8:20 AM,64.4,42.8,45,30.04,-9999.0,Variable,2.3,-,N/A,,Clear,0,2013-06-24 05:20:00
8:50 AM,66.2,46.4,49,30.01,-9999.0,NNE,3.5,-,N/A,,Clear,30,2013-06-24 05:50:00
9:00 AM,67,47,37,,12,NNE,3.5,,,,,30,2013-06-24 06:00:00
9:20 AM,69.8,44.6,40,30.01,-9999.0,ENE,4.6,-,N/A,,Clear,60,2013-06-24 06:20:00
9:50 AM,69.8,46.4,43,30.01,-9999.0,East,4.6,-,N/A,,Clear,80,2013-06-24 06:50:00
10:20 AM,71.6,44.6,38,30.01,-9999.0,Variable,4.6,-,N/A,,Clear,0,2013-06-24 07:20:00
10:50 AM,73.4,44.6,36,30.01,-9999.0,NE,4.6,-,N/A,,Clear,40,2013-06-24 07:50:00
11:20 AM,75.2,42.8,31,29.98,-9999.0,Variable,5.8,-,N/A,,Clear,0,2013-06-24 08:20:00
11:50 AM,75.2,37.4,25,29.98,-9999.0,Variable,4.6,-,N/A,,Clear,0,2013-06-24 08:50:00
12:20 PM,77.0,42.8,29,29.98,6.2,NNW,10.4,-,N/A,,Partly Cloudy,340,2013-06-24 09:20:00
12:50 PM,77.0,41.0,28,29.98,6.2,WNW,9.2,-,N/A,,Partly Cloudy,290,2013-06-24 09:50:00
1:20 PM,78.8,42.8,28,29.98,6.2,SW,5.8,-,N/A,,Partly Cloudy,230,2013-06-24 10:20:00
1:50 PM,78.8,37.4,23,29.95,6.2,West,6.9,-,N/A,,Scattered Clouds,280,2013-06-24 10:50:00
2:20 PM,78.8,33.8,20,29.95,6.2,West,10.4,-,N/A,,Scattered Clouds,280,2013-06-24 11:20:00
2:50 PM,80.6,33.8,18,29.95,6.2,West,13.8,-,N/A,,Scattered Clouds,270,2013-06-24 11:50:00
3:00 PM,80,35,11,,12,West,13.8,,,,Partly Cloudy,270,2013-06-24 12:00:00
3:20 PM,80.6,28.4,15,29.95,6.2,West,12.7,-,N/A,,Scattered Clouds,260,2013-06-24 12:20:00
3:50 PM,80.6,28.4,15,29.95,6.2,West,9.2,-,N/A,,Scattered Clouds,270,2013-06-24 12:50:00
4:20 PM,78.8,32.0,18,29.92,6.2,West,13.8,-,N/A,,Scattered Clouds,270,2013-06-24 13:20:00
4:50 PM,80.6,28.4,15,29.92,6.2,West,16.1,-,N/A,,Scattered Clouds,280,2013-06-24 13:50:00
5:20 PM,80.6,32.0,17,29.92,6.2,West,13.8,-,N/A,,Scattered Clouds,280,2013-06-24 14:20:00
5:50 PM,78.8,35.6,21,29.92,6.2,West,16.1,-,N/A,,Scattered Clouds,280,2013-06-24 14:50:00
6:20 PM,77.0,37.4,24,29.95,6.2,West,11.5,-,N/A,,Partly Cloudy,280,2013-06-24 15:20:00
6:50 PM,75.2,41.0,29,29.95,6.2,WNW,9.2,-,N/A,,Scattered Clouds,290,2013-06-24 15:50:00
7:20 PM,71.6,42.8,35,29.95,6.2,WNW,8.1,-,N/A,,Scattered Clouds,290,2013-06-24 16:20:00
7:50 PM,68.0,44.6,43,29.95,6.2,NW,8.1,-,N/A,,Scattered Clouds,310,2013-06-24 16:50:00
8:20 PM,64.4,44.6,49,29.95,6.2,NW,9.2,-,N/A,,Scattered Clouds,320,2013-06-24 17:20:00
8:50 PM,60.8,42.8,52,29.98,6.2,SW,4.6,-,N/A,,Partly Cloudy,230,2013-06-24 17:50:00
9:00 PM,62,43,38,,12,SW,4.6,,,,Scattered Clouds,230,2013-06-24 18:00:00
9:20 PM,64.4,41.0,42,29.98,6.2,SW,4.6,-,N/A,,Partly Cloudy,220,2013-06-24 18:20:00
9:50 PM,64.4,41.0,42,29.98,6.2,WNW,5.8,-,N/A,,Partly Cloudy,290,2013-06-24 18:50:00
10:20 PM,64.4,41.0,42,29.98,6.2,North,4.6,-,N/A,,Partly Cloudy,360,2013-06-24 19:20:00
10:50 PM,64.4,41.0,42,29.98,6.2,Calm,Calm,-,N/A,,Partly Cloudy,0,2013-06-24 19:50:00
11:20 PM,62.6,42.8,48,30.01,6.2,North,4.6,-,N/A,,Partly Cloudy,350,2013-06-24 20:20:00
11:50 PM,60.8,42.8,52,30.01,6.2,NW,8.1,-,N/A,,Partly Cloudy,320,2013-06-24 20:50:00